Time,TemperatureF,DewpointF,PressureIn,WindDirection,WindDirectionDegrees,WindSpeedMPH,WindSpeedGustMPH,Humidity,HourlyPrecipIn,Conditions,Clouds,dailyrainin,SoftwareType,DateUTC
2013-06-04 00:01:00,60.0,51.3,29.91,West,270,2.0,7.0,73,0.00,,,0.00,Weather View 32 v70,2013-06-04 04:01:00,
2013-06-04 00:06:00,60.0,51.3,29.91,WNW,292,1.0,7.0,73,0.00,,,0.00,Weather View 32 v70,2013-06-04 04:06:00,
2013-06-04 00:11:00,60.0,52.0,29.90,WNW,292,0.0,7.0,75,0.00,,,0.00,Weather View 32 v70,2013-06-04 04:11:00,
2013-06-04 00:16:00,60.0,52.8,29.90,WNW,292,1.0,7.0,77,0.00,,,0.00,Weather View 32 v70,2013-06-04 04:16:00,
2013-06-04 00:22:00,59.0,52.1,29.90,WNW,292,2.0,7.0,78,0.00,,,0.00,Weather View 32 v70,2013-06-04 04:22:00,
2013-06-04 00:27:00,59.0,52.1,29.90,WNW,292,1.0,7.0,78,0.00,,,0.00,Weather View 32 v70,2013-06-04 04:27:00,
2013-06-04 00:32:00,59.0,52.5,29.90,WNW,292,1.0,7.0,79,0.00,,,0.00,Weather View 32 v70,2013-06-04 04:32:00,
2013-06-04 00:37:00,59.0,53.2,29.90,WNW,292,0.0,6.0,81,0.00,,,0.00,Weather View 32 v70,2013-06-04 04:37:00,
2013-06-04 00:42:00,59.0,53.5,29.90,WNW,292,0.0,6.0,82,0.00,,,0.00,Weather View 32 v70,2013-06-04 04:42:00,
2013-06-04 00:47:00,58.0,53.5,29.90,WNW,292,1.0,6.0,85,0.00,,,0.00,Weather View 32 v70,2013-06-04 04:47:00,
2013-06-04 00:52:00,58.0,54.1,29.90,WNW,292,0.0,6.0,87,0.00,,,0.00,Weather View 32 v70,2013-06-04 04:52:00,
2013-06-04 00:57:00,58.0,54.8,29.90,WNW,292,0.0,6.0,89,0.00,,,0.00,Weather View 32 v70,2013-06-04 04:57:00,
2013-06-04 01:02:00,57.0,53.8,29.90,WNW,292,0.0,6.0,89,0.00,,,0.00,Weather View 32 v70,2013-06-04 05:02:00,
2013-06-04 01:07:00,57.0,53.8,29.90,WNW,292,1.0,6.0,89,0.00,,,0.00,Weather View 32 v70,2013-06-04 05:07:00,
2013-06-04 01:12:00,57.0,54.4,29.90,WNW,292,2.0,5.0,91,0.00,,,0.00,Weather View 32 v70,2013-06-04 05:12:00,
2013-06-04 01:17:00,57.0,53.8,29.91,WNW,292,0.0,5.0,89,0.00,,,0.00,Weather View 32 v70,2013-06-04 05:17:00,
2013-06-04 01:22:00,57.0,54.4,29.91,WNW,292,0.0,5.0,91,0.00,,,0.00,Weather View 32 v70,2013-06-04 05:22:00,
2013-06-04 01:27:00,57.0,54.7,29.91,WNW,292,0.0,4.0,92,0.00,,,0.00,Weather View 32 v70,2013-06-04 05:27:00,
2013-06-04 01:32:00,56.0,53.4,29.91,WNW,292,0.0,4.0,91,0.00,,,0.00,Weather View 32 v70,2013-06-04 05:32:00,
2013-06-04 01:37:00,56.0,53.4,29.91,West,270,2.0,4.0,91,0.00,,,0.00,Weather View 32 v70,2013-06-04 05:37:00,
2013-06-04 01:42:00,56.0,53.7,29.91,West,270,0.0,4.0,92,0.00,,,0.00,Weather View 32 v70,2013-06-04 05:42:00,
2013-06-04 01:47:00,56.0,53.4,29.91,West,270,0.0,4.0,91,0.00,,,0.00,Weather View 32 v70,2013-06-04 05:47:00,
2013-06-04 01:52:00,56.0,53.4,29.91,West,270,0.0,4.0,91,0.00,,,0.00,Weather View 32 v70,2013-06-04 05:52:00,
2013-06-04 01:57:00,56.0,53.4,29.91,West,270,0.0,4.0,91,0.00,,,0.00,Weather View 32 v70,2013-06-04 05:57:00,
2013-06-04 02:02:00,56.0,53.7,29.91,West,270,0.0,4.0,92,0.00,,,0.00,Weather View 32 v70,2013-06-04 06:02:00,
2013-06-04 02:07:00,56.0,54.0,29.91,West,270,0.0,4.0,93,0.00,,,0.00,Weather View 32 v70,2013-06-04 06:07:00,
2013-06-04 02:12:00,56.0,53.4,29.91,West,270,0.0,4.0,91,0.00,,,0.00,Weather View 32 v70,2013-06-04 06:12:00,
2013-06-04 02:17:00,55.0,52.7,29.91,West,270,0.0,4.0,92,0.00,,,0.00,Weather View 32 v70,2013-06-04 06:17:00,
2013-06-04 02:22:00,55.0,53.0,29.91,West,270,0.0,4.0,93,0.00,,,0.00,Weather View 32 v70,2013-06-04 06:22:00,
2013-06-04 02:27:00,55.0,53.0,29.91,West,270,0.0,4.0,93,0.00,,,0.00,Weather View 32 v70,2013-06-04 06:27:00,
2013-06-04 02:32:00,55.0,53.0,29.91,West,270,0.0,4.0,93,0.00,,,0.00,Weather View 32 v70,2013-06-04 06:32:00,
2013-06-04 02:37:00,54.0,52.0,29.91,West,270,0.0,4.0,93,0.00,,,0.00,Weather View 32 v70,2013-06-04 06:37:00,
2013-06-04 02:42:00,54.0,51.4,29.91,West,270,0.0,4.0,91,0.00,,,0.00,Weather View 32 v70,2013-06-04 06:42:00,
2013-06-04 02:47:00,54.0,51.1,29.91,West,270,0.0,4.0,90,0.00,,,0.00,Weather View 32 v70,2013-06-04 06:47:00,
2013-06-04 02:52:00,53.0,49.8,29.91,West,270,0.0,4.0,89,0.00,,,0.00,Weather View 32 v70,2013-06-04 06:52:00,
2013-06-04 02:57:00,53.0,48.3,29.91,West,270,0.0,4.0,84,0.00,,,0.00,Weather View 32 v70,2013-06-04 06:57:00,
2013-06-04 03:02:00,53.0,48.0,29.91,West,270,0.0,3.0,83,0.00,,,0.00,Weather View 32 v70,2013-06-04 07:02:00,
2013-06-04 03:07:00,53.0,46.6,29.91,West,270,0.0,3.0,79,0.00,,,0.00,Weather View 32 v70,2013-06-04 07:07:00,
2013-06-04 03:12:00,53.0,45.3,29.91,West,270,0.0,3.0,75,0.00,,,0.00,Weather View 32 v70,2013-06-04 07:12:00,
2013-06-04 03:17:00,52.0,35.4,29.91,West,270,0.0,1.0,53,0.00,,,0.00,Weather View 32 v70,2013-06-04 07:17:00,
2013-06-04 03:22:00,52.0,34.4,29.91,West,270,0.0,1.0,51,0.00,,,0.00,Weather View 32 v70,2013-06-04 07:22:00,
2013-06-04 03:27:00,51.0,28.1,29.91,West,270,0.0,1.0,41,0.00,,,0.00,Weather View 32 v70,2013-06-04 07:27:00,
2013-06-04 03:32:00,51.0,22.1,29.91,West,270,0.0,1.0,32,0.00,,,0.00,Weather View 32 v70,2013-06-04 07:32:00,
2013-06-04 03:37:00,51.0,20.6,29.91,West,270,0.0,1.0,30,0.00,,,0.00,Weather View 32 v70,2013-06-04 07:37:00,
2013-06-04 03:42:00,51.0,18.1,29.91,West,270,0.0,1.0,27,0.00,,,0.00,Weather View 32 v70,2013-06-04 07:42:00,
2013-06-04 03:47:00,51.0,19.0,29.91,West,270,0.0,1.0,28,0.00,,,0.00,Weather View 32 v70,2013-06-04 07:47:00,
2013-06-04 03:52:00,50.0,18.1,29.91,West,270,0.0,1.0,28,0.00,,,0.00,Weather View 32 v70,2013-06-04 07:52:00,
2013-06-04 03:57:00,50.0,18.1,29.91,West,270,0.0,1.0,28,0.00,,,0.00,Weather View 32 v70,2013-06-04 07:57:00,
2013-06-04 04:02:00,50.0,15.5,29.91,West,270,0.0,0.0,25,0.00,,,0.00,Weather View 32 v70,2013-06-04 08:02:00,
2013-06-04 04:07:00,50.0,15.5,29.91,West,270,0.0,0.0,25,0.00,,,0.00,Weather View 32 v70,2013-06-04 08:07:00,
2013-06-04 04:12:00,49.0,15.5,29.91,West,270,0.0,0.0,26,0.00,,,0.00,Weather View 32 v70,2013-06-04 08:12:00,
2013-06-04 04:17:00,49.0,14.6,29.91,West,270,0.0,0.0,25,0.00,,,0.00,Weather View 32 v70,2013-06-04 08:17:00,
2013-06-04 04:22:00,49.0,14.6,29.91,West,270,0.0,0.0,25,0.00,,,0.00,Weather View 32 v70,2013-06-04 08:22:00,
2013-06-04 04:27:00,49.0,12.8,29.91,West,270,0.0,0.0,23,0.00,,,0.00,Weather View 32 v70,2013-06-04 08:27:00,
2013-06-04 04:32:00,49.0,11.7,29.91,West,270,0.0,0.0,22,0.00,,,0.00,Weather View 32 v70,2013-06-04 08:32:00,
2013-06-04 04:37:00,49.0,11.7,29.91,West,270,0.0,0.0,22,0.00,,,0.00,Weather View 32 v70,2013-06-04 08:37:00,
2013-06-04 04:42:00,49.0,8.5,29.91,West,270,0.0,0.0,19,0.00,,,0.00,Weather View 32 v70,2013-06-04 08:42:00,
2013-06-04 04:47:00,48.0,8.8,29.91,West,270,0.0,0.0,20,0.00,,,0.00,Weather View 32 v70,2013-06-04 08:47:00,
2013-06-04 04:52:00,48.0,7.6,29.91,West,270,0.0,0.0,19,0.00,,,0.00,Weather View 32 v70,2013-06-04 08:52:00,
2013-06-04 04:57:00,48.0,5.2,29.91,West,270,0.0,0.0,17,0.00,,,0.00,Weather View 32 v70,2013-06-04 08:57:00,
2013-06-04 05:02:00,48.0,5.2,29.91,West,270,0.0,0.0,17,0.00,,,0.00,Weather View 32 v70,2013-06-04 09:02:00,
2013-06-04 05:07:00,48.0,5.2,29.91,West,270,0.0,0.0,17,0.00,,,0.00,Weather View 32 v70,2013-06-04 09:07:00,
2013-06-04 05:12:00,48.0,2.5,29.91,West,270,0.0,0.0,15,0.00,,,0.00,Weather View 32 v70,2013-06-04 09:12:00,
2013-06-04 05:17:00,47.0,3.1,29.91,West,270,0.0,0.0,16,0.00,,,0.00,Weather View 32 v70,2013-06-04 09:17:00,
2013-06-04 05:22:00,47.0,-3.1,29.91,West,270,0.0,0.0,12,0.00,,,0.00,Weather View 32 v70,2013-06-04 09:22:00,
2013-06-04 05:27:00,47.0,-1.4,29.92,West,270,0.0,0.0,13,0.00,,,0.00,Weather View 32 v70,2013-06-04 09:27:00,
2013-06-04 05:32:00,47.0,-1.4,29.92,West,270,0.0,0.0,13,0.00,,,0.00,Weather View 32 v70,2013-06-04 09:32:00,
2013-06-04 05:37:00,47.0,-11.4,29.92,West,270,0.0,0.0,8,0.00,,,0.00,Weather View 32 v70,2013-06-04 09:37:00,
2013-06-04 05:42:00,47.0,-24.8,29.92,West,270,0.0,0.0,4,0.00,,,0.00,Weather View 32 v70,2013-06-04 09:42:00,
2013-06-04 05:47:00,47.0,-24.8,29.92,West,270,0.0,0.0,4,0.00,,,0.00,Weather View 32 v70,2013-06-04 09:47:00,
2013-06-04 05:52:00,47.0,-37.3,29.92,West,270,0.0,0.0,2,0.00,,,0.00,Weather View 32 v70,2013-06-04 09:52:00,
2013-06-04 05:57:00,47.0,-49.0,29.93,West,270,0.0,0.0,1,0.00,,,0.00,Weather View 32 v70,2013-06-04 09:57:00,
2013-06-04 06:02:00,47.0,-49.0,29.93,West,270,0.0,0.0,1,0.00,,,0.00,Weather View 32 v70,2013-06-04 10:02:00,
2013-06-04 06:07:00,47.0,-49.0,29.93,West,270,0.0,0.0,1,0.00,,,0.00,Weather View 32 v70,2013-06-04 10:07:00,
2013-06-04 06:12:00,47.0,-49.0,29.93,West,270,0.0,0.0,1,0.00,,,0.00,Weather View 32 v70,2013-06-04 10:12:00,
2013-06-04 06:17:00,47.0,-49.0,29.93,West,270,0.0,0.0,1,0.00,,,0.00,Weather View 32 v70,2013-06-04 10:17:00,
2013-06-04 06:22:00,48.0,-48.4,29.94,West,270,0.0,0.0,1,0.00,,,0.00,Weather View 32 v70,2013-06-04 10:22:00,
2013-06-04 06:27:00,48.0,-48.4,29.94,West,270,0.0,0.0,1,0.00,,,0.00,Weather View 32 v70,2013-06-04 10:27:00,
2013-06-04 06:32:00,49.0,-47.8,29.94,SSE,157,0.0,2.0,1,0.00,,,0.00,Weather View 32 v70,2013-06-04 10:32:00,
2013-06-04 06:37:00,49.0,-47.8,29.94,SSE,157,0.0,2.0,1,0.00,,,0.00,Weather View 32 v70,2013-06-04 10:37:00,
2013-06-04 06:42:00,50.0,-14.9,29.95,ENE,67,3.0,3.0,6,0.00,,,0.00,Weather View 32 v70,2013-06-04 10:42:00,
2013-06-04 06:47:00,50.0,10.4,29.95,ENE,67,0.0,4.0,20,0.00,,,0.00,Weather View 32 v70,2013-06-04 10:47:00,
2013-06-04 06:52:00,51.0,12.4,29.95,SE,135,0.0,4.0,21,0.00,,,0.00,Weather View 32 v70,2013-06-04 10:52:00,
2013-06-04 06:57:00,52.0,19.8,29.95,East,90,0.0,4.0,28,0.00,,,0.00,Weather View 32 v70,2013-06-04 10:57:00,
2013-06-04 07:02:00,52.0,22.2,29.95,ENE,67,3.0,6.0,31,0.00,,,0.00,Weather View 32 v70,2013-06-04 11:02:00,
2013-06-04 07:07:00,53.0,25.3,29.95,NNW,337,0.0,6.0,34,0.00,,,0.00,Weather View 32 v70,2013-06-04 11:07:00,
2013-06-04 07:12:00,53.0,28.0,29.95,West,270,2.0,6.0,38,0.00,,,0.00,Weather View 32 v70,2013-06-04 11:12:00,
2013-06-04 07:17:00,54.0,28.3,29.96,West,270,2.0,6.0,37,0.00,,,0.00,Weather View 32 v70,2013-06-04 11:17:00,
2013-06-04 07:22:00,54.0,35.2,29.96,SSE,157,0.0,7.0,49,0.00,,,0.00,Weather View 32 v70,2013-06-04 11:22:00,
2013-06-04 07:27:00,54.0,34.7,29.96,ENE,67,1.0,7.0,48,0.00,,,0.00,Weather View 32 v70,2013-06-04 11:27:00,
2013-06-04 07:32:00,55.0,33.4,29.96,WNW,292,3.0,7.0,44,0.00,,,0.00,Weather View 32 v70,2013-06-04 11:32:00,
2013-06-04 07:37:00,55.0,35.1,29.96,WNW,292,2.0,7.0,47,0.00,,,0.00,Weather View 32 v70,2013-06-04 11:37:00,
2013-06-04 07:42:00,55.0,36.2,29.97,WNW,292,6.0,8.0,49,0.00,,,0.00,Weather View 32 v70,2013-06-04 11:42:00,
2013-06-04 07:47:00,55.0,38.6,29.96,West,270,2.0,8.0,54,0.00,,,0.00,Weather View 32 v70,2013-06-04 11:47:00,
2013-06-04 07:52:00,55.0,37.2,29.97,ENE,67,0.0,8.0,51,0.00,,,0.00,Weather View 32 v70,2013-06-04 11:52:00,
2013-06-04 07:57:00,56.0,36.0,29.97,NW,315,0.0,8.0,47,0.00,,,0.00,Weather View 32 v70,2013-06-04 11:57:00,
2013-06-04 08:02:00,56.0,39.1,29.97,ENE,67,3.0,8.0,53,0.00,,,0.00,Weather View 32 v70,2013-06-04 12:02:00,
2013-06-04 08:07:00,56.0,38.1,29.97,ENE,67,1.0,8.0,51,0.00,,,0.00,Weather View 32 v70,2013-06-04 12:07:00,
2013-06-04 08:12:00,57.0,39.5,29.97,ENE,67,2.0,8.0,52,0.00,,,0.00,Weather View 32 v70,2013-06-04 12:12:00,
2013-06-04 08:17:00,57.0,36.9,29.97,ENE,67,2.0,8.0,47,0.00,,,0.00,Weather View 32 v70,2013-06-04 12:17:00,
2013-06-04 08:22:00,57.0,41.4,29.97,WNW,292,1.0,8.0,56,0.00,,,0.00,Weather View 32 v70,2013-06-04 12:22:00,
2013-06-04 08:27:00,58.0,44.2,29.97,ENE,67,6.0,8.0,60,0.00,,,0.00,Weather View 32 v70,2013-06-04 12:27:00,
2013-06-04 08:32:00,58.0,43.7,29.97,West,270,4.0,8.0,59,0.00,,,0.00,Weather View 32 v70,2013-06-04 12:32:00,
2013-06-04 08:37:00,58.0,43.3,29.97,ENE,67,4.0,8.0,58,0.00,,,0.00,Weather View 32 v70,2013-06-04 12:37:00,
2013-06-04 08:42:00,58.0,43.7,29.97,ENE,67,6.0,8.0,59,0.00,,,0.00,Weather View 32 v70,2013-06-04 12:42:00,
2013-06-04 08:47:00,59.0,46.0,29.97,NE,45,4.0,7.0,62,0.00,,,0.00,Weather View 32 v70,2013-06-04 12:47:00,
2013-06-04 08:52:00,59.0,44.7,29.97,WNW,292,3.0,8.0,59,0.00,,,0.00,Weather View 32 v70,2013-06-04 12:52:00,
2013-06-04 08:58:00,59.0,46.0,29.97,WSW,247,0.0,8.0,62,0.00,,,0.00,Weather View 32 v70,2013-06-04 12:58:00,
2013-06-04 09:03:00,60.0,46.9,29.98,ENE,67,3.0,8.0,62,0.00,,,0.00,Weather View 32 v70,2013-06-04 13:03:00,
2013-06-04 09:08:00,60.0,48.6,29.98,WNW,292,1.0,8.0,66,0.00,,,0.00,Weather View 32 v70,2013-06-04 13:08:00,
2013-06-04 09:13:00,61.0,51.1,29.98,West,270,3.0,8.0,70,0.00,,,0.00,Weather View 32 v70,2013-06-04 13:13:00,
2013-06-04 09:18:00,62.0,50.1,29.98,ENE,67,3.0,8.0,65,0.00,,,0.00,Weather View 32 v70,2013-06-04 13:18:00,
2013-06-04 09:23:00,62.0,46.1,29.99,ENE,67,3.0,8.0,56,0.00,,,0.00,Weather View 32 v70,2013-06-04 13:23:00,
2013-06-04 09:28:00,63.0,45.6,29.99,East,90,1.0,8.0,53,0.00,,,0.00,Weather View 32 v70,2013-06-04 13:28:00,
2013-06-04 09:33:00,64.0,46.0,29.99,West,270,4.0,8.0,52,0.00,,,0.00,Weather View 32 v70,2013-06-04 13:33:00,
2013-06-04 09:38:00,64.0,44.9,29.99,WNW,292,2.0,8.0,50,0.00,,,0.00,Weather View 32 v70,2013-06-04 13:38:00,
2013-06-04 09:43:00,65.0,47.9,30.00,ENE,67,2.0,8.0,54,0.00,,,0.00,Weather View 32 v70,2013-06-04 13:43:00,
2013-06-04 09:48:00,65.0,45.9,30.00,ENE,67,3.0,8.0,50,0.00,,,0.00,Weather View 32 v70,2013-06-04 13:48:00,
2013-06-04 09:53:00,66.0,47.8,30.01,ENE,67,3.0,7.0,52,0.00,,,0.00,Weather View 32 v70,2013-06-04 13:53:00,
2013-06-04 09:58:00,66.0,45.7,30.01,ENE,67,3.0,7.0,48,0.00,,,0.00,Weather View 32 v70,2013-06-04 13:58:00,
2013-06-04 10:03:00,66.0,44.0,30.01,SSW,202,0.0,7.0,45,0.00,,,0.00,Weather View 32 v70,2013-06-04 14:03:00,
2013-06-04 10:08:00,66.0,45.1,30.00,ENE,67,4.0,7.0,47,0.00,,,0.00,Weather View 32 v70,2013-06-04 14:08:00,
2013-06-04 10:13:00,67.0,45.5,30.00,NNE,22,6.0,7.0,46,0.00,,,0.00,Weather View 32 v70,2013-06-04 14:13:00,
2013-06-04 10:18:00,67.0,45.5,30.00,ENE,67,0.0,7.0,46,0.00,,,0.00,Weather View 32 v70,2013-06-04 14:18:00,
2013-06-04 10:23:00,68.0,50.2,30.01,West,270,5.0,7.0,53,0.00,,,0.00,Weather View 32 v70,2013-06-04 14:23:00,
2013-06-04 10:28:00,67.0,46.1,30.01,East,90,0.0,8.0,47,0.00,,,0.00,Weather View 32 v70,2013-06-04 14:28:00,
2013-06-04 10:33:00,67.0,46.1,30.01,West,270,6.0,9.0,47,0.00,,,0.00,Weather View 32 v70,2013-06-04 14:33:00,
2013-06-04 10:38:00,67.0,47.7,30.01,South,180,0.0,9.0,50,0.00,,,0.00,Weather View 32 v70,2013-06-04 14:38:00,
2013-06-04 10:43:00,68.0,45.8,30.01,West,270,0.0,9.0,45,0.00,,,0.00,Weather View 32 v70,2013-06-04 14:43:00,
2013-06-04 10:48:00,68.0,46.4,30.01,WSW,247,0.0,9.0,46,0.00,,,0.00,Weather View 32 v70,2013-06-04 14:48:00,
2013-06-04 10:53:00,68.0,46.4,30.02,West,270,2.0,9.0,46,0.00,,,0.00,Weather View 32 v70,2013-06-04 14:53:00,
2013-06-04 10:58:00,69.0,47.3,30.02,West,270,6.0,9.0,46,0.00,,,0.00,Weather View 32 v70,2013-06-04 14:58:00,
2013-06-04 11:03:00,67.0,45.5,30.02,West,270,1.0,10.0,46,0.00,,,0.00,Weather View 32 v70,2013-06-04 15:03:00,
2013-06-04 11:08:00,68.0,48.6,30.02,East,90,6.0,10.0,50,0.00,,,0.00,Weather View 32 v70,2013-06-04 15:08:00,
2013-06-04 11:13:00,68.0,46.4,30.02,West,270,2.0,10.0,46,0.00,,,0.00,Weather View 32 v70,2013-06-04 15:13:00,
2013-06-04 11:18:00,68.0,44.6,30.02,ENE,67,4.0,10.0,43,0.00,,,0.00,Weather View 32 v70,2013-06-04 15:18:00,
2013-06-04 11:23:00,67.0,46.1,30.02,NNE,22,1.0,10.0,47,0.00,,,0.00,Weather View 32 v70,2013-06-04 15:23:00,
2013-06-04 11:29:00,68.0,45.2,30.02,WNW,292,1.0,10.0,44,0.00,,,0.00,Weather View 32 v70,2013-06-04 15:29:00,
2013-06-04 11:34:00,69.0,45.5,30.03,ENE,67,6.0,10.0,43,0.00,,,0.00,Weather View 32 v70,2013-06-04 15:34:00,
2013-06-04 11:39:00,69.0,46.1,30.03,WNW,292,0.0,10.0,44,0.00,,,0.00,Weather View 32 v70,2013-06-04 15:39:00,
2013-06-04 11:44:00,69.0,46.7,30.02,NW,315,0.0,10.0,45,0.00,,,0.00,Weather View 32 v70,2013-06-04 15:44:00,
2013-06-04 11:49:00,69.0,45.5,30.03,WNW,292,4.0,10.0,43,0.00,,,0.00,Weather View 32 v70,2013-06-04 15:49:00,
2013-06-04 11:54:00,68.0,46.4,30.03,ENE,67,4.0,10.0,46,0.00,,,0.00,Weather View 32 v70,2013-06-04 15:54:00,
2013-06-04 11:59:00,67.0,44.9,30.03,North,360,1.0,10.0,45,0.00,,,0.00,Weather View 32 v70,2013-06-04 15:59:00,
2013-06-04 12:04:00,67.0,44.9,30.03,ENE,67,2.0,9.0,45,0.00,,,0.00,Weather View 32 v70,2013-06-04 16:04:00,
2013-06-04 12:09:00,67.0,44.3,30.03,ENE,67,3.0,9.0,44,0.00,,,0.00,Weather View 32 v70,2013-06-04 16:09:00,
2013-06-04 12:14:00,68.0,46.4,30.03,WSW,247,1.0,9.0,46,0.00,,,0.00,Weather View 32 v70,2013-06-04 16:14:00,
2013-06-04 12:19:00,69.0,47.3,30.03,ENE,67,1.0,9.0,46,0.00,,,0.00,Weather View 32 v70,2013-06-04 16:19:00,
2013-06-04 12:24:00,69.0,45.5,30.03,NE,45,4.0,9.0,43,0.00,,,0.00,Weather View 32 v70,2013-06-04 16:24:00,
2013-06-04 12:29:00,69.0,47.3,30.03,NE,45,1.0,9.0,46,0.00,,,0.00,Weather View 32 v70,2013-06-04 16:29:00,
2013-06-04 12:34:00,69.0,46.7,30.03,ESE,112,0.0,9.0,45,0.00,,,0.00,Weather View 32 v70,2013-06-04 16:34:00,
2013-06-04 12:39:00,68.0,44.6,30.03,ENE,67,2.0,9.0,43,0.00,,,0.00,Weather View 32 v70,2013-06-04 16:39:00,
2013-06-04 12:44:00,68.0,45.2,30.03,North,360,1.0,9.0,44,0.00,,,0.00,Weather View 32 v70,2013-06-04 16:44:00,
2013-06-04 12:49:00,68.0,46.4,30.03,West,270,1.0,9.0,46,0.00,,,0.00,Weather View 32 v70,2013-06-04 16:49:00,
2013-06-04 12:54:00,68.0,45.2,30.03,West,270,6.0,9.0,44,0.00,,,0.00,Weather View 32 v70,2013-06-04 16:54:00,
2013-06-04 12:59:00,69.0,46.1,30.03,WNW,292,3.0,9.0,44,0.00,,,0.00,Weather View 32 v70,2013-06-04 16:59:00,
2013-06-04 13:04:00,69.0,44.9,30.03,ENE,67,4.0,9.0,42,0.00,,,0.00,Weather View 32 v70,2013-06-04 17:04:00,
2013-06-04 13:09:00,69.0,47.3,30.03,WNW,292,3.0,9.0,46,0.00,,,0.00,Weather View 32 v70,2013-06-04 17:09:00,
2013-06-04 13:14:00,70.0,45.8,30.03,WNW,292,6.0,9.0,42,0.00,,,0.00,Weather View 32 v70,2013-06-04 17:14:00,
2013-06-04 13:19:00,69.0,46.7,30.03,ENE,67,6.0,9.0,45,0.00,,,0.00,Weather View 32 v70,2013-06-04 17:19:00,
2013-06-04 13:24:00,70.0,45.8,30.03,ENE,67,1.0,10.0,42,0.00,,,0.00,Weather View 32 v70,2013-06-04 17:24:00,
2013-06-04 13:29:00,70.0,45.8,30.03,West,270,5.0,10.0,42,0.00,,,0.00,Weather View 32 v70,2013-06-04 17:29:00,
2013-06-04 13:34:00,70.0,45.8,30.04,ENE,67,6.0,10.0,42,0.00,,,0.00,Weather View 32 v70,2013-06-04 17:34:00,
2013-06-04 13:39:00,71.0,47.9,30.04,ENE,67,6.0,10.0,44,0.00,,,0.00,Weather View 32 v70,2013-06-04 17:39:00,
2013-06-04 13:44:00,71.0,45.4,30.04,SSE,157,5.0,10.0,40,0.00,,,0.00,Weather View 32 v70,2013-06-04 17:44:00,
2013-06-04 13:49:00,71.0,46.0,30.04,NE,45,6.0,10.0,41,0.00,,,0.00,Weather View 32 v70,2013-06-04 17:49:00,
2013-06-04 13:54:00,71.0,44.0,30.04,WNW,292,4.0,10.0,38,0.00,,,0.00,Weather View 32 v70,2013-06-04 17:54:00,
2013-06-04 13:59:00,71.0,44.0,30.05,West,270,2.0,10.0,38,0.00,,,0.00,Weather View 32 v70,2013-06-04 17:59:00,
2013-06-04 14:05:00,70.0,45.2,30.04,East,90,2.0,10.0,41,0.00,,,0.00,Weather View 32 v70,2013-06-04 18:05:00,
2013-06-04 14:10:00,70.0,45.8,30.05,ENE,67,2.0,10.0,42,0.00,,,0.00,Weather View 32 v70,2013-06-04 18:10:00,
2013-06-04 14:15:00,70.0,46.4,30.04,ENE,67,6.0,10.0,43,0.00,,,0.00,Weather View 32 v70,2013-06-04 18:15:00,
2013-06-04 14:20:00,70.0,43.8,30.04,West,270,2.0,10.0,39,0.00,,,0.00,Weather View 32 v70,2013-06-04 18:20:00,
2013-06-04 14:25:00,70.0,46.4,30.04,ENE,67,2.0,10.0,43,0.00,,,0.00,Weather View 32 v70,2013-06-04 18:25:00,
2013-06-04 14:30:00,70.0,45.2,30.04,NE,45,8.0,10.0,41,0.00,,,0.00,Weather View 32 v70,2013-06-04 18:30:00,
2013-06-04 14:35:00,70.0,43.8,30.04,East,90,2.0,10.0,39,0.00,,,0.00,Weather View 32 v70,2013-06-04 18:35:00,
2013-06-04 14:40:00,70.0,46.4,30.04,East,90,3.0,10.0,43,0.00,,,0.00,Weather View 32 v70,2013-06-04 18:40:00,
2013-06-04 14:45:00,70.0,45.8,30.04,West,270,1.0,10.0,42,0.00,,,0.00,Weather View 32 v70,2013-06-04 18:45:00,
2013-06-04 14:50:00,70.0,45.8,30.04,ESE,112,4.0,10.0,42,0.00,,,0.00,Weather View 32 v70,2013-06-04 18:50:00,
2013-06-04 14:55:00,70.0,45.2,30.05,NW,315,2.0,10.0,41,0.00,,,0.00,Weather View 32 v70,2013-06-04 18:55:00,
2013-06-04 15:00:00,70.0,45.2,30.05,North,360,0.0,10.0,41,0.00,,,0.00,Weather View 32 v70,2013-06-04 19:00:00,
2013-06-04 15:05:00,70.0,46.4,30.04,SW,225,0.0,10.0,43,0.00,,,0.00,Weather View 32 v70,2013-06-04 19:05:00,
2013-06-04 15:10:00,70.0,46.4,30.04,WNW,292,1.0,10.0,43,0.00,,,0.00,Weather View 32 v70,2013-06-04 19:10:00,
2013-06-04 15:15:00,70.0,45.2,30.04,ENE,67,2.0,10.0,41,0.00,,,0.00,Weather View 32 v70,2013-06-04 19:15:00,
2013-06-04 15:20:00,70.0,45.8,30.04,West,270,3.0,10.0,42,0.00,,,0.00,Weather View 32 v70,2013-06-04 19:20:00,
2013-06-04 15:25:00,70.0,45.8,30.03,NE,45,3.0,10.0,42,0.00,,,0.00,Weather View 32 v70,2013-06-04 19:25:00,
2013-06-04 15:30:00,70.0,45.2,30.03,NE,45,7.0,10.0,41,0.00,,,0.00,Weather View 32 v70,2013-06-04 19:30:00,
2013-06-04 15:35:00,70.0,47.0,30.03,ENE,67,5.0,10.0,44,0.00,,,0.00,Weather View 32 v70,2013-06-04 19:35:00,
2013-06-04 15:40:00,69.0,44.9,30.03,ENE,67,4.0,9.0,42,0.00,,,0.00,Weather View 32 v70,2013-06-04 19:40:00,
2013-06-04 15:45:00,69.0,46.1,30.03,ENE,67,1.0,9.0,44,0.00,,,0.00,Weather View 32 v70,2013-06-04 19:45:00,
2013-06-04 15:50:00,70.0,47.6,30.03,ENE,67,3.0,9.0,45,0.00,,,0.00,Weather View 32 v70,2013-06-04 19:50:00,
2013-06-04 15:55:00,70.0,45.8,30.03,East,90,5.0,9.0,42,0.00,,,0.00,Weather View 32 v70,2013-06-04 19:55:00,
2013-06-04 16:00:00,70.0,46.4,30.03,ENE,67,4.0,9.0,43,0.00,,,0.00,Weather View 32 v70,2013-06-04 20:00:00,
2013-06-04 16:05:00,70.0,48.2,30.03,WNW,292,6.0,9.0,46,0.00,,,0.00,Weather View 32 v70,2013-06-04 20:05:00,
2013-06-04 16:10:00,70.0,45.8,30.03,ESE,112,3.0,9.0,42,0.00,,,0.00,Weather View 32 v70,2013-06-04 20:10:00,
2013-06-04 16:15:00,70.0,46.4,30.03,West,270,2.0,9.0,43,0.00,,,0.00,Weather View 32 v70,2013-06-04 20:15:00,
2013-06-04 16:20:00,70.0,46.4,30.03,West,270,1.0,9.0,43,0.00,,,0.00,Weather View 32 v70,2013-06-04 20:20:00,
2013-06-04 16:25:00,70.0,45.8,30.03,ENE,67,8.0,9.0,42,0.00,,,0.00,Weather View 32 v70,2013-06-04 20:25:00,
2013-06-04 16:30:00,69.0,44.9,30.03,ENE,67,5.0,9.0,42,0.00,,,0.00,Weather View 32 v70,2013-06-04 20:30:00,
2013-06-04 16:35:00,69.0,45.5,30.03,ENE,67,3.0,8.0,43,0.00,,,0.00,Weather View 32 v70,2013-06-04 20:35:00,
2013-06-04 16:40:00,69.0,46.1,30.03,East,90,4.0,8.0,44,0.00,,,0.00,Weather View 32 v70,2013-06-04 20:40:00,
2013-06-04 16:45:00,69.0,46.7,30.03,ENE,67,4.0,8.0,45,0.00,,,0.00,Weather View 32 v70,2013-06-04 20:45:00,
2013-06-04 16:50:00,69.0,44.3,30.03,West,270,3.0,8.0,41,0.00,,,0.00,Weather View 32 v70,2013-06-04 20:50:00,
2013-06-04 16:55:00,70.0,46.4,30.03,ENE,67,7.0,8.0,43,0.00,,,0.00,Weather View 32 v70,2013-06-04 20:55:00,
2013-06-04 17:01:00,70.0,45.8,30.03,ENE,67,6.0,9.0,42,0.00,,,0.00,Weather View 32 v70,2013-06-04 21:01:00,
2013-06-04 17:06:00,69.0,44.3,30.03,West,270,4.0,9.0,41,0.00,,,0.00,Weather View 32 v70,2013-06-04 21:06:00,
2013-06-04 17:11:00,69.0,44.9,30.03,NW,315,0.0,9.0,42,0.00,,,0.00,Weather View 32 v70,2013-06-04 21:11:00,
2013-06-04 17:16:00,69.0,45.5,30.03,ENE,67,2.0,9.0,43,0.00,,,0.00,Weather View 32 v70,2013-06-04 21:16:00,
2013-06-04 17:21:00,70.0,45.2,30.04,WNW,292,0.0,9.0,41,0.00,,,0.00,Weather View 32 v70,2013-06-04 21:21:00,
2013-06-04 17:26:00,70.0,45.8,30.03,East,90,4.0,9.0,42,0.00,,,0.00,Weather View 32 v70,2013-06-04 21:26:00,
2013-06-04 17:31:00,70.0,45.2,30.03,ENE,67,6.0,9.0,41,0.00,,,0.00,Weather View 32 v70,2013-06-04 21:31:00,
2013-06-04 17:36:00,69.0,45.5,30.03,WNW,292,0.0,9.0,43,0.00,,,0.00,Weather View 32 v70,2013-06-04 21:36:00,
2013-06-04 17:41:00,69.0,44.3,30.03,ENE,67,3.0,9.0,41,0.00,,,0.00,Weather View 32 v70,2013-06-04 21:41:00,
2013-06-04 17:46:00,69.0,45.5,30.03,ENE,67,4.0,9.0,43,0.00,,,0.00,Weather View 32 v70,2013-06-04 21:46:00,
2013-06-04 17:51:00,69.0,44.3,30.03,West,270,6.0,9.0,41,0.00,,,0.00,Weather View 32 v70,2013-06-04 21:51:00,
2013-06-04 17:56:00,69.0,44.9,30.03,ENE,67,4.0,9.0,42,0.00,,,0.00,Weather View 32 v70,2013-06-04 21:56:00,
2013-06-04 18:01:00,69.0,45.5,30.03,ENE,67,0.0,7.0,43,0.00,,,0.00,Weather View 32 v70,2013-06-04 22:01:00,
2013-06-04 18:06:00,69.0,45.5,30.03,ENE,67,1.0,7.0,43,0.00,,,0.00,Weather View 32 v70,2013-06-04 22:06:00,
2013-06-04 18:11:00,69.0,45.5,30.03,ENE,67,2.0,7.0,43,0.00,,,0.00,Weather View 32 v70,2013-06-04 22:11:00,
2013-06-04 18:16:00,69.0,46.1,30.03,East,90,2.0,7.0,44,0.00,,,0.00,Weather View 32 v70,2013-06-04 22:16:00,
2013-06-04 18:21:00,69.0,46.1,30.04,ENE,67,2.0,7.0,44,0.00,,,0.00,Weather View 32 v70,2013-06-04 22:21:00,
2013-06-04 18:26:00,69.0,45.5,30.04,East,90,2.0,7.0,43,0.00,,,0.00,Weather View 32 v70,2013-06-04 22:26:00,
2013-06-04 18:31:00,69.0,46.1,30.05,ENE,67,2.0,7.0,44,0.00,,,0.00,Weather View 32 v70,2013-06-04 22:31:00,
2013-06-04 18:36:00,69.0,46.7,30.05,ENE,67,1.0,7.0,45,0.00,,,0.00,Weather View 32 v70,2013-06-04 22:36:00,
2013-06-04 18:41:00,69.0,45.5,30.05,ENE,67,5.0,7.0,43,0.00,,,0.00,Weather View 32 v70,2013-06-04 22:41:00,
2013-06-04 18:46:00,68.0,44.6,30.05,ENE,67,2.0,7.0,43,0.00,,,0.00,Weather View 32 v70,2013-06-04 22:46:00,
2013-06-04 18:51:00,68.0,45.8,30.06,ENE,67,3.0,7.0,45,0.00,,,0.00,Weather View 32 v70,2013-06-04 22:51:00,
2013-06-04 18:56:00,68.0,45.8,30.05,SSW,202,0.0,7.0,45,0.00,,,0.00,Weather View 32 v70,2013-06-04 22:56:00,
2013-06-04 19:01:00,68.0,45.2,30.06,ENE,67,2.0,7.0,44,0.00,,,0.00,Weather View 32 v70,2013-06-04 23:01:00,
2013-06-04 19:06:00,68.0,45.8,30.06,ENE,67,3.0,7.0,45,0.00,,,0.00,Weather View 32 v70,2013-06-04 23:06:00,
2013-06-04 19:12:00,68.0,46.4,30.06,NW,315,0.0,7.0,46,0.00,,,0.00,Weather View 32 v70,2013-06-04 23:12:00,
2013-06-04 19:17:00,67.0,45.5,30.06,ENE,67,0.0,7.0,46,0.00,,,0.00,Weather View 32 v70,2013-06-04 23:17:00,
2013-06-04 19:22:00,67.0,46.1,30.07,WNW,292,0.0,7.0,47,0.00,,,0.00,Weather View 32 v70,2013-06-04 23:22:00,
2013-06-04 19:27:00,67.0,46.6,30.07,ENE,67,0.0,7.0,48,0.00,,,0.00,Weather View 32 v70,2013-06-04 23:27:00,
2013-06-04 19:32:00,67.0,46.6,30.07,ENE,67,0.0,7.0,48,0.00,,,0.00,Weather View 32 v70,2013-06-04 23:32:00,
2013-06-04 19:37:00,66.0,45.1,30.07,ENE,67,0.0,7.0,47,0.00,,,0.00,Weather View 32 v70,2013-06-04 23:37:00,
2013-06-04 19:42:00,66.0,46.8,30.07,ENE,67,0.0,7.0,50,0.00,,,0.00,Weather View 32 v70,2013-06-04 23:42:00,
2013-06-04 19:47:00,66.0,47.8,30.07,ENE,67,0.0,7.0,52,0.00,,,0.00,Weather View 32 v70,2013-06-04 23:47:00,
2013-06-04 19:52:00,65.0,47.4,30.07,ENE,67,1.0,7.0,53,0.00,,,0.00,Weather View 32 v70,2013-06-04 23:52:00,
2013-06-04 19:57:00,65.0,47.9,30.07,ENE,67,0.0,7.0,54,0.00,,,0.00,Weather View 32 v70,2013-06-04 23:57:00,
2013-06-04 20:02:00,64.0,48.4,30.07,ENE,67,0.0,5.0,57,0.00,,,0.00,Weather View 32 v70,2013-06-05 00:02:00,
2013-06-04 20:07:00,64.0,51.5,30.07,ENE,67,0.0,4.0,64,0.00,,,0.00,Weather View 32 v70,2013-06-05 00:07:00,
2013-06-04 20:12:00,63.0,49.3,30.07,ENE,67,0.0,4.0,61,0.00,,,0.00,Weather View 32 v70,2013-06-05 00:12:00,
2013-06-04 20:17:00,63.0,48.4,30.07,ENE,67,2.0,4.0,59,0.00,,,0.00,Weather View 32 v70,2013-06-05 00:17:00,
2013-06-04 20:22:00,63.0,48.0,30.07,ENE,67,0.0,3.0,58,0.00,,,0.00,Weather View 32 v70,2013-06-05 00:22:00,
2013-06-04 20:27:00,63.0,48.4,30.07,ENE,67,0.0,3.0,59,0.00,,,0.00,Weather View 32 v70,2013-06-05 00:27:00,
2013-06-04 20:32:00,62.0,48.8,30.08,ENE,67,0.0,3.0,62,0.00,,,0.00,Weather View 32 v70,2013-06-05 00:32:00,
2013-06-04 20:37:00,62.0,52.1,30.08,ENE,67,0.0,3.0,70,0.00,,,0.00,Weather View 32 v70,2013-06-05 00:37:00,
2013-06-04 20:42:00,61.0,53.0,30.08,ENE,67,1.0,3.0,75,0.00,,,0.00,Weather View 32 v70,2013-06-05 00:42:00,
2013-06-04 20:47:00,61.0,54.4,30.08,ENE,67,1.0,3.0,79,0.00,,,0.00,Weather View 32 v70,2013-06-05 00:47:00,
2013-06-04 20:52:00,60.0,52.4,30.09,ENE,67,2.0,3.0,76,0.00,,,0.00,Weather View 32 v70,2013-06-05 00:52:00,
2013-06-04 20:57:00,60.0,52.4,30.09,ENE,67,0.0,3.0,76,0.00,,,0.00,Weather View 32 v70,2013-06-05 00:57:00,
2013-06-04 21:02:00,60.0,53.5,30.09,ENE,67,0.0,3.0,79,0.00,,,0.00,Weather View 32 v70,2013-06-05 01:02:00,
2013-06-04 21:07:00,59.0,55.1,30.09,ENE,67,1.0,3.0,87,0.00,,,0.00,Weather View 32 v70,2013-06-05 01:07:00,
2013-06-04 21:12:00,59.0,55.4,30.09,ENE,67,1.0,3.0,88,0.00,,,0.00,Weather View 32 v70,2013-06-05 01:12:00,
2013-06-04 21:17:00,59.0,53.5,30.10,ENE,67,0.0,3.0,82,0.00,,,0.00,Weather View 32 v70,2013-06-05 01:17:00,
2013-06-04 21:22:00,58.0,34.4,30.10,ENE,67,1.0,3.0,41,0.00,,,0.00,Weather View 32 v70,2013-06-05 01:22:00,
2013-06-04 21:27:00,58.0,18.2,30.10,ENE,67,1.0,3.0,21,0.00,,,0.00,Weather View 32 v70,2013-06-05 01:27:00,
2013-06-04 21:32:00,57.0,12.5,30.10,ENE,67,0.0,3.0,17,0.00,,,0.00,Weather View 32 v70,2013-06-05 01:32:00,
2013-06-04 21:37:00,57.0,19.5,30.09,ENE,67,0.0,3.0,23,0.00,,,0.00,Weather View 32 v70,2013-06-05 01:37:00,
2013-06-04 21:42:00,57.0,17.4,30.10,ENE,67,0.0,3.0,21,0.00,,,0.00,Weather View 32 v70,2013-06-05 01:42:00,
2013-06-04 21:47:00,57.0,15.1,30.11,ENE,67,0.0,3.0,19,0.00,,,0.00,Weather View 32 v70,2013-06-05 01:47:00,
2013-06-04 21:52:00,56.0,4.0,30.11,ENE,67,1.0,3.0,12,0.00,,,0.00,Weather View 32 v70,2013-06-05 01:52:00,
2013-06-04 21:57:00,56.0,4.0,30.11,ENE,67,0.0,3.0,12,0.00,,,0.00,Weather View 32 v70,2013-06-05 01:57:00,
2013-06-04 22:02:00,56.0,8.9,30.11,ENE,67,0.0,3.0,15,0.00,,,0.00,Weather View 32 v70,2013-06-05 02:02:00,
2013-06-04 22:07:00,56.0,8.9,30.11,ENE,67,0.0,2.0,15,0.00,,,0.00,Weather View 32 v70,2013-06-05 02:07:00,
2013-06-04 22:12:00,55.0,-0.7,30.11,ENE,67,1.0,2.0,10,0.00,,,0.00,Weather View 32 v70,2013-06-05 02:12:00,
2013-06-04 22:17:00,55.0,-24.6,30.12,ENE,67,2.0,2.0,3,0.00,,,0.00,Weather View 32 v70,2013-06-05 02:17:00,
2013-06-04 22:22:00,55.0,-11.2,30.12,ENE,67,0.0,2.0,6,0.00,,,0.00,Weather View 32 v70,2013-06-05 02:22:00,
2013-06-04 22:27:00,55.0,-44.1,30.12,ENE,67,0.0,2.0,1,0.00,,,0.00,Weather View 32 v70,2013-06-05 02:27:00,
2013-06-04 22:33:00,54.0,-44.7,30.12,ENE,67,1.0,2.0,1,0.00,,,0.00,Weather View 32 v70,2013-06-05 02:33:00,
2013-06-04 22:38:00,54.0,-44.7,30.12,ENE,67,0.0,2.0,1,0.00,,,0.00,Weather View 32 v70,2013-06-05 02:38:00,
2013-06-04 22:43:00,54.0,-44.7,30.12,ENE,67,0.0,2.0,1,0.00,,,0.00,Weather View 32 v70,2013-06-05 02:43:00,
2013-06-04 22:48:00,54.0,-44.7,30.12,ENE,67,0.0,2.0,1,0.00,,,0.00,Weather View 32 v70,2013-06-05 02:48:00,
2013-06-04 22:53:00,54.0,-44.7,30.12,ENE,67,0.0,2.0,1,0.00,,,0.00,Weather View 32 v70,2013-06-05 02:53:00,
2013-06-04 22:58:00,54.0,-44.7,30.12,ENE,67,0.0,2.0,1,0.00,,,0.00,Weather View 32 v70,2013-06-05 02:58:00,
2013-06-04 23:03:00,54.0,-44.7,30.12,ENE,67,0.0,2.0,1,0.00,,,0.00,Weather View 32 v70,2013-06-05 03:03:00,
2013-06-04 23:08:00,54.0,-25.3,30.13,ENE,67,0.0,2.0,3,0.00,,,0.00,Weather View 32 v70,2013-06-05 03:08:00,
2013-06-04 23:13:00,54.0,-15.6,30.13,ENE,67,0.0,2.0,5,0.00,,,0.00,Weather View 32 v70,2013-06-05 03:13:00,
2013-06-04 23:18:00,54.0,-19.9,30.13,ENE,67,0.0,2.0,4,0.00,,,0.00,Weather View 32 v70,2013-06-05 03:18:00,
2013-06-04 23:23:00,54.0,-25.3,30.14,ENE,67,0.0,2.0,3,0.00,,,0.00,Weather View 32 v70,2013-06-05 03:23:00,
2013-06-04 23:28:00,54.0,-32.7,30.14,ENE,67,0.0,2.0,2,0.00,,,0.00,Weather View 32 v70,2013-06-05 03:28:00,
2013-06-04 23:33:00,54.0,-44.7,30.14,ENE,67,0.0,2.0,1,0.00,,,0.00,Weather View 32 v70,2013-06-05 03:33:00,
2013-06-04 23:38:00,53.0,-45.3,30.15,ENE,67,0.0,0.0,1,0.00,,,0.00,Weather View 32 v70,2013-06-05 03:38:00,
2013-06-04 23:43:00,53.0,-45.3,30.15,ENE,67,0.0,0.0,1,0.00,,,0.00,Weather View 32 v70,2013-06-05 03:43:00,
2013-06-04 23:48:00,53.0,-45.3,30.15,ENE,67,0.0,0.0,1,0.00,,,0.00,Weather View 32 v70,2013-06-05 03:48:00,
2013-06-04 23:53:00,53.0,-45.3,30.15,ENE,67,0.0,2.0,1,0.00,,,0.00,Weather View 32 v70,2013-06-05 03:53:00,
2013-06-04 23:58:00,53.0,-45.3,30.15,ENE,67,0.0,2.0,1,0.00,,,0.00,Weather View 32 v70,2013-06-05 03:58:00,